Regional Weather Roundup
Issued by NWS

Home | Current Version | Previous Version | Graphics & Text | Print | Product List | Glossary On
Versions: 1 2 3 4 5 6 7 8 9 10 11 12 13 14 15 16 17 18 19 20 21 22 23 24 25 26 27 28 29 30 31 32 33 34 35 36 37 38 39 40 41 42 43 44 45 46 47 48 49 50
000
ASUS43 KLOT 281458
RWRIL

ILLINOIS REGIONAL WEATHER ROUNDUP
NATIONAL WEATHER SERVICE CHICAGO/ROMEOVILLE IL
1000 AM CDT MON JUL 28 2014

NOTE: "FAIR" INDICATES FEW OR NO CLOUDS BELOW 12,000 FEET WITH NO
SIGNIFICANT WEATHER AND/OR OBSTRUCTIONS TO VISIBILITY.

* THESE STATIONS ARE NOT UNDER NWS QUALITY CONTROL. THEY ALSO MAY NOT
  REPORT WEATHER SUCH AS PRECIPITATION OR FOG.

ILZ001-002-007-009-015-016-024-281600-
NORTHWEST ILLINOIS

CITY           SKY/WX    TMP DP  RH WIND       PRES   REMARKS
MOLINE         SUNNY     67  50  54 VRB7G18   30.14R
$$

ILZ003-004-008-010-011-017-018-281600-
NORTH CENTRAL ILLINOIS

CITY           SKY/WX    TMP DP  RH WIND       PRES   REMARKS
ROCKFORD       NOT AVBL
$$

ILZ005-006-012>014-019>023-281600-
NORTHEAST ILLINOIS

CITY           SKY/WX    TMP DP  RH WIND       PRES   REMARKS
CHICAGO-OHARE  MOSUNNY   64  45  49 N18       30.06R
CHICAGO-MIDWAY MOSUNNY   66  50  56 N13       30.05S
AURORA         SUNNY     64  49  57 N16       30.08R
WAUKEGAN       SUNNY     61  45  55 N13G23    30.07R
DUPAGE AIRPORT SUNNY     64  49  57 N15       30.07R
WHEELING       SUNNY     64  47  53 N14G23    30.08R
NORTHERLY ISL    N/A     61  50  67 N14         N/A
$$

LMZ740>746-281600-
SOUTHERN LAKE MICHIGAN

STATION/POSITION SKY/WX   TEMP    WIND        PRES    VSBY  WAVE
                          AIR SEA DIR/SP/G                  HT/PER
                          (F)     (DEG/KT/KT) (MB)    (MI)  (FT/S)
SOUTHERN BUOY              56 59  340/ 21/ 27 1016.4R         8/ 7
WAUKEGAN HARBOR            59      20/ 19/ 23   N/A
HARRISON CRIB              59     340/ 24/ 27   N/A
BURNHAM HARBOR             61     320/ 12/ 17   N/A
CALUMET HARBOR             61     330/ 12/ 18 1016.5R
MICHIGAN CITY              60     340/ 23/ 27   N/A
MICHIGAN CITY 6N           60 67  360/ 19/ 23   N/A           8/ 7
ST. JOSEPH                 59 65  350/ 19/ 25   N/A           8/ 7
$$

ILZ025>027-034>036-040-047-049-050-058-095>099-281600-
WEST-CENTRAL ILLINOIS

CITY           SKY/WX    TMP DP  RH WIND       PRES   REMARKS
$$

ILZ028>032-037-038-041>044-048-051>054-059>061-281600-
CENTRAL ILLINOIS

CITY           SKY/WX    TMP DP  RH WIND       PRES   REMARKS
PEORIA         NOT AVBL
SPRINGFIELD    PTSUNNY   71  59  65 N9G17     30.10R
TAYLORVILLE    NOT AVBL
$$

ILZ033-039-045-046-055>057-062-063-281600-
EAST-CENTRAL ILLINOIS

CITY           SKY/WX    TMP DP  RH WIND       PRES   REMARKS
CHAMPAIGN      SUNNY     66  57  72 N15       30.06R
MATTOON        SUNNY     68  57  68 N12       30.06R
$$

ILZ079-100>102-281600-
SOUTHWEST ILLINOIS

CITY           SKY/WX    TMP DP  RH WIND       PRES   REMARKS
ALTON          PTSUNNY   70  64  83 N6        30.11R
BELLEVILLE     PTSUNNY   73  64  73 N10       30.08R
CAHOKIA*       PTSUNNY   73  62  68 N12       30.10R
$$

ILZ064>066-069>071-074>076-080>082-084>086-088>090-092>094-281600-
SOUTH-CENTRAL ILLINOIS

CITY           SKY/WX    TMP DP  RH WIND       PRES   REMARKS
CARBONDALE     MOSUNNY   73  61  65 N7        30.08R
MARION         MOSUNNY   73  63  68 NW9       30.08R
$$

ILZ067-068-072-073-078-083-087-091-281600-
SOUTHEAST ILLINOIS

CITY           SKY/WX    TMP DP  RH WIND       PRES   REMARKS
LAWRENCEVILLE  SUNNY     71  58  63 N13       30.04R
$$

ABBREVIATIONS USED IN REMARKS
   TC - TEMPERATURE IN CELSIUS
  WCI - WIND CHILL INDEX
   HX - HEAT INDEX
  VSB - VISIBILITY
$$



USA.gov is the U.S. government's official web portal to all federal, state and local government web resources and services.